Time,TemperatureF,DewpointF,PressureIn,WindDirection,WindDirectionDegrees,WindSpeedMPH,WindSpeedGustMPH,Humidity,HourlyPrecipIn,Conditions,Clouds,dailyrainin,SoftwareType,DateUTC
2013-02-16 00:02:00,7.0,1.6,30.22,WNW,283,0.0,0.0,78,0.00,,,0.00,Wunderground v.1.15,2013-02-16 06:02:00,
2013-02-16 00:08:00,7.2,1.5,30.22,NW,315,0.0,0.0,77,0.00,,,0.00,Wunderground v.1.15,2013-02-16 06:08:00,
2013-02-16 00:13:00,7.4,1.7,30.22,West,266,0.0,0.0,77,0.00,,,0.00,Wunderground v.1.15,2013-02-16 06:13:00,
2013-02-16 00:19:00,7.6,1.9,30.22,NNW,339,0.0,0.0,77,0.00,,,0.00,Wunderground v.1.15,2013-02-16 06:19:00,
2013-02-16 00:25:00,7.7,2.0,30.22,West,280,0.0,0.0,77,0.00,,,0.00,Wunderground v.1.15,2013-02-16 06:25:00,
2013-02-16 00:31:00,7.7,2.0,30.22,NW,310,0.0,0.0,77,0.00,,,0.00,Wunderground v.1.15,2013-02-16 06:31:00,
2013-02-16 00:37:00,7.6,1.9,30.22,West,281,0.0,0.0,77,0.00,,,0.00,Wunderground v.1.15,2013-02-16 06:37:00,
2013-02-16 00:42:00,7.6,1.9,30.22,WNW,297,0.0,0.0,77,0.00,,,0.00,Wunderground v.1.15,2013-02-16 06:42:00,
2013-02-16 00:48:00,7.5,1.8,30.22,WNW,303,0.0,0.0,77,0.00,,,0.00,Wunderground v.1.15,2013-02-16 06:48:00,
2013-02-16 00:54:00,7.4,1.7,30.21,NNW,333,0.0,0.0,77,0.00,,,0.00,Wunderground v.1.15,2013-02-16 06:54:00,
2013-02-16 01:00:00,7.3,1.6,30.22,North,9,0.0,0.0,77,0.00,,,0.00,Wunderground v.1.15,2013-02-16 07:00:00,
2013-02-16 01:05:00,7.2,1.5,30.22,WNW,299,0.0,0.0,77,0.00,,,0.00,Wunderground v.1.15,2013-02-16 07:05:00,
2013-02-16 01:10:00,6.6,0.6,30.22,WNW,290,0.0,0.0,76,0.00,,,0.00,Wunderground v.1.15,2013-02-16 07:10:00,
2013-02-16 01:15:00,6.0,0.3,30.22,WNW,295,0.0,0.0,77,0.00,,,0.00,Wunderground v.1.15,2013-02-16 07:15:00,
2013-02-16 01:21:00,5.9,0.5,30.21,NNE,14,0.0,0.0,78,0.00,,,0.00,Wunderground v.1.15,2013-02-16 07:21:00,
2013-02-16 01:27:00,6.2,1.1,30.21,WNW,300,0.0,0.0,79,0.00,,,0.00,Wunderground v.1.15,2013-02-16 07:27:00,
2013-02-16 01:33:00,6.2,1.1,30.21,NNW,341,0.0,0.0,79,0.00,,,0.00,Wunderground v.1.15,2013-02-16 07:33:00,
2013-02-16 01:38:00,6.0,0.6,30.21,WNW,298,0.0,0.0,78,0.00,,,0.00,Wunderground v.1.15,2013-02-16 07:38:00,
2013-02-16 01:44:00,5.7,0.3,30.21,WNW,283,0.0,0.0,78,0.00,,,0.00,Wunderground v.1.15,2013-02-16 07:44:00,
2013-02-16 01:50:00,5.1,-0.3,30.21,West,268,0.0,0.0,78,0.00,,,0.00,Wunderground v.1.15,2013-02-16 07:50:00,
2013-02-16 01:56:00,4.6,-0.5,30.20,WNW,286,0.0,0.0,79,0.00,,,0.00,Wunderground v.1.15,2013-02-16 07:56:00,
2013-02-16 02:02:00,4.6,-0.2,30.20,WNW,297,0.0,0.0,80,0.00,,,0.00,Wunderground v.1.15,2013-02-16 08:02:00,
2013-02-16 02:07:00,5.3,0.5,30.20,WNW,299,0.0,0.0,80,0.00,,,0.00,Wunderground v.1.15,2013-02-16 08:07:00,
2013-02-16 02:13:00,5.5,0.4,30.20,WNW,294,0.0,0.0,79,0.00,,,0.00,Wunderground v.1.15,2013-02-16 08:13:00,
2013-02-16 02:19:00,5.4,0.3,30.20,West,270,0.0,0.0,79,0.00,,,0.00,Wunderground v.1.15,2013-02-16 08:19:00,
2013-02-16 02:26:00,5.1,-0.3,30.20,WNW,288,0.0,0.0,78,0.00,,,0.00,Wunderground v.1.15,2013-02-16 08:26:00,
2013-02-16 02:31:00,4.5,-0.8,30.19,West,277,0.0,0.0,78,0.00,,,0.00,Wunderground v.1.15,2013-02-16 08:31:00,
2013-02-16 02:36:00,3.9,-1.2,30.20,West,263,0.0,0.0,79,0.00,,,0.00,Wunderground v.1.15,2013-02-16 08:36:00,
2013-02-16 02:43:00,3.1,-1.9,30.20,West,261,0.0,0.0,79,0.00,,,0.00,Wunderground v.1.15,2013-02-16 08:43:00,
2013-02-16 02:48:00,2.7,-1.8,30.19,WSW,256,0.0,0.0,81,0.00,,,0.00,Wunderground v.1.15,2013-02-16 08:48:00,
2013-02-16 02:54:00,2.6,-1.9,30.19,West,265,0.0,0.0,81,0.00,,,0.00,Wunderground v.1.15,2013-02-16 08:54:00,
2013-02-16 03:00:00,2.7,-1.5,30.19,West,271,0.0,0.0,82,0.00,,,0.00,Wunderground v.1.15,2013-02-16 09:00:00,
2013-02-16 03:05:00,2.5,-1.7,30.19,West,269,0.0,0.0,82,0.00,,,0.00,Wunderground v.1.15,2013-02-16 09:05:00,
2013-02-16 03:11:00,2.4,-1.8,30.19,West,273,0.0,0.0,82,0.00,,,0.00,Wunderground v.1.15,2013-02-16 09:11:00,
2013-02-16 03:17:00,3.1,-0.9,30.19,WNW,283,0.0,0.0,83,0.00,,,0.00,Wunderground v.1.15,2013-02-16 09:17:00,
2013-02-16 03:23:00,3.4,-0.9,30.19,West,278,0.0,0.0,82,0.00,,,0.00,Wunderground v.1.15,2013-02-16 09:23:00,
2013-02-16 03:29:00,3.5,-0.8,30.19,NW,309,0.0,0.0,82,0.00,,,0.00,Wunderground v.1.15,2013-02-16 09:29:00,
2013-02-16 03:34:00,3.5,-1.0,30.19,WNW,293,0.0,0.0,81,0.00,,,0.00,Wunderground v.1.15,2013-02-16 09:34:00,
2013-02-16 03:40:00,3.3,-1.0,30.19,West,280,0.0,0.0,82,0.00,,,0.00,Wunderground v.1.15,2013-02-16 09:40:00,
2013-02-16 03:45:00,3.2,-1.3,30.19,West,273,0.0,0.0,81,0.00,,,0.00,Wunderground v.1.15,2013-02-16 09:45:00,
2013-02-16 03:50:00,2.7,-1.5,30.19,NW,313,0.0,0.0,82,0.00,,,0.00,Wunderground v.1.15,2013-02-16 09:50:00,
2013-02-16 03:56:00,2.4,-1.8,30.19,West,274,0.0,0.0,82,0.00,,,0.00,Wunderground v.1.15,2013-02-16 09:56:00,
2013-02-16 04:02:00,2.3,-1.9,30.19,WNW,286,0.0,0.0,82,0.00,,,0.00,Wunderground v.1.15,2013-02-16 10:02:00,
2013-02-16 04:08:00,2.0,-2.5,30.19,WNW,298,0.0,0.0,81,0.00,,,0.00,Wunderground v.1.15,2013-02-16 10:08:00,
2013-02-16 04:13:00,1.9,-2.3,30.19,WNW,297,0.0,0.0,82,0.00,,,0.00,Wunderground v.1.15,2013-02-16 10:13:00,
2013-02-16 04:19:00,2.0,-2.2,30.19,WNW,292,0.0,0.0,82,0.00,,,0.00,Wunderground v.1.15,2013-02-16 10:19:00,
2013-02-16 04:25:00,1.7,-3.0,30.19,WNW,289,0.0,0.0,80,0.00,,,0.00,Wunderground v.1.15,2013-02-16 10:25:00,
2013-02-16 04:31:00,0.9,-3.6,30.19,West,281,0.0,0.0,81,0.00,,,0.00,Wunderground v.1.15,2013-02-16 10:31:00,
2013-02-16 04:37:00,0.8,-3.2,30.19,NW,317,0.0,0.0,83,0.00,,,0.00,Wunderground v.1.15,2013-02-16 10:37:00,
2013-02-16 04:43:00,1.0,-3.0,30.19,West,281,0.0,0.0,83,0.00,,,0.00,Wunderground v.1.15,2013-02-16 10:43:00,
2013-02-16 04:49:00,0.5,-4.0,30.19,West,271,0.0,0.0,81,0.00,,,0.00,Wunderground v.1.15,2013-02-16 10:49:00,
2013-02-16 04:55:00,0.7,-3.0,30.19,WNW,296,0.0,0.0,84,0.00,,,0.00,Wunderground v.1.15,2013-02-16 10:55:00,
2013-02-16 05:02:00,1.1,-2.9,30.19,WNW,294,0.0,0.0,83,0.00,,,0.00,Wunderground v.1.15,2013-02-16 11:02:00,
2013-02-16 05:07:00,0.0,-5.0,30.19,WNW,284,0.0,0.0,79,0.00,,,0.00,Wunderground v.1.15,2013-02-16 11:07:00,
2013-02-16 05:13:00,-1.2,-6.1,30.19,WNW,300,0.0,0.0,79,0.00,,,0.00,Wunderground v.1.15,2013-02-16 11:13:00,
2013-02-16 05:19:00,-2.3,-7.0,30.19,WNW,302,0.0,0.0,80,0.00,,,0.00,Wunderground v.1.15,2013-02-16 11:19:00,
2013-02-16 05:25:00,-3.0,-7.1,30.19,NW,317,0.0,0.0,82,0.00,,,0.00,Wunderground v.1.15,2013-02-16 11:25:00,
2013-02-16 05:31:00,-3.5,-7.4,30.19,West,277,0.0,0.0,83,0.00,,,0.00,Wunderground v.1.15,2013-02-16 11:31:00,
2013-02-16 05:37:00,-3.6,-7.2,30.19,West,273,0.0,0.0,84,0.00,,,0.00,Wunderground v.1.15,2013-02-16 11:37:00,
2013-02-16 05:43:00,-3.7,-7.3,30.19,WNW,290,0.0,0.0,84,0.00,,,0.00,Wunderground v.1.15,2013-02-16 11:43:00,
2013-02-16 05:49:00,-4.1,-7.7,30.19,WNW,296,0.0,0.0,84,0.00,,,0.00,Wunderground v.1.15,2013-02-16 11:49:00,
2013-02-16 05:55:00,-4.6,-8.4,30.19,WNW,296,0.0,0.0,83,0.00,,,0.00,Wunderground v.1.15,2013-02-16 11:55:00,
2013-02-16 06:01:00,-4.9,-8.5,30.19,WNW,296,0.0,0.0,84,0.00,,,0.00,Wunderground v.1.15,2013-02-16 12:01:00,
2013-02-16 06:07:00,-5.1,-8.5,30.19,WNW,296,0.0,0.0,85,0.00,,,0.00,Wunderground v.1.15,2013-02-16 12:07:00,
2013-02-16 06:12:00,-4.9,-8.3,30.20,West,268,0.0,0.0,85,0.00,,,0.00,Wunderground v.1.15,2013-02-16 12:12:00,
2013-02-16 06:17:00,-4.9,-8.3,30.20,West,261,0.0,0.0,85,0.00,,,0.00,Wunderground v.1.15,2013-02-16 12:17:00,
2013-02-16 06:24:00,-4.5,-7.6,30.20,West,261,0.0,0.0,86,0.00,,,0.00,Wunderground v.1.15,2013-02-16 12:24:00,
2013-02-16 06:30:00,-4.8,-8.4,30.20,West,261,0.0,0.0,84,0.00,,,0.00,Wunderground v.1.15,2013-02-16 12:30:00,
2013-02-16 06:35:00,-5.1,-8.7,30.20,West,261,0.0,0.0,84,0.00,,,0.00,Wunderground v.1.15,2013-02-16 12:35:00,
2013-02-16 06:40:00,-5.4,-9.0,30.20,West,261,0.0,0.0,84,0.00,,,0.00,Wunderground v.1.15,2013-02-16 12:40:00,
2013-02-16 06:46:00,-4.7,-7.8,30.20,WNW,288,0.0,0.0,86,0.00,,,0.00,Wunderground v.1.15,2013-02-16 12:46:00,
2013-02-16 06:52:00,-3.4,-6.3,30.20,West,279,0.0,0.0,87,0.00,,,0.00,Wunderground v.1.15,2013-02-16 12:52:00,
2013-02-16 06:58:00,-3.3,-6.7,30.20,West,276,0.0,0.0,85,0.00,,,0.00,Wunderground v.1.15,2013-02-16 12:58:00,
2013-02-16 07:04:00,-4.9,-9.5,30.21,West,276,0.0,0.0,80,0.00,,,0.00,Wunderground v.1.15,2013-02-16 13:04:00,
2013-02-16 07:10:00,-6.3,-10.9,30.21,West,276,0.0,0.0,80,0.00,,,0.00,Wunderground v.1.15,2013-02-16 13:10:00,
2013-02-16 07:16:00,-7.2,-11.7,30.21,West,276,0.0,0.0,80,0.00,,,0.00,Wunderground v.1.15,2013-02-16 13:16:00,
2013-02-16 07:22:00,-7.6,-11.9,30.21,West,276,0.0,0.0,81,0.00,,,0.00,Wunderground v.1.15,2013-02-16 13:22:00,
2013-02-16 07:27:00,-7.7,-11.7,30.21,West,276,0.0,0.0,82,0.00,,,0.00,Wunderground v.1.15,2013-02-16 13:27:00,
2013-02-16 07:34:00,-7.6,-11.4,30.22,West,276,0.0,0.0,83,0.00,,,0.00,Wunderground v.1.15,2013-02-16 13:34:00,
2013-02-16 07:39:00,-7.3,-10.9,30.22,West,276,0.0,0.0,84,0.00,,,0.00,Wunderground v.1.15,2013-02-16 13:39:00,
2013-02-16 07:45:00,-6.9,-10.5,30.22,West,276,0.0,0.0,84,0.00,,,0.00,Wunderground v.1.15,2013-02-16 13:45:00,
2013-02-16 07:51:00,-6.5,-10.1,30.22,West,276,0.0,0.0,84,0.00,,,0.00,Wunderground v.1.15,2013-02-16 13:51:00,
2013-02-16 07:57:00,-6.3,-9.9,30.22,West,276,0.0,0.0,84,0.00,,,0.00,Wunderground v.1.15,2013-02-16 13:57:00,
2013-02-16 08:03:00,-6.2,-9.8,30.22,West,276,0.0,0.0,84,0.00,,,0.00,Wunderground v.1.15,2013-02-16 14:03:00,
2013-02-16 08:09:00,-6.0,-9.8,30.22,West,279,0.0,0.0,83,0.00,,,0.00,Wunderground v.1.15,2013-02-16 14:09:00,
2013-02-16 08:15:00,-5.6,-9.2,30.22,West,279,0.0,0.0,84,0.00,,,0.00,Wunderground v.1.15,2013-02-16 14:15:00,
2013-02-16 08:21:00,-5.1,-8.7,30.22,West,279,0.0,0.0,84,0.00,,,0.00,Wunderground v.1.15,2013-02-16 14:21:00,
2013-02-16 08:26:00,-4.5,-8.1,30.22,West,279,0.0,0.0,84,0.00,,,0.00,Wunderground v.1.15,2013-02-16 14:26:00,
2013-02-16 08:32:00,-3.5,-6.9,30.22,West,279,0.0,0.0,85,0.00,,,0.00,Wunderground v.1.15,2013-02-16 14:32:00,
2013-02-16 08:38:00,-2.3,-5.7,30.22,West,277,0.0,0.0,85,0.00,,,0.00,Wunderground v.1.15,2013-02-16 14:38:00,
2013-02-16 08:43:00,-1.0,-4.4,30.22,West,277,0.0,0.0,85,0.00,,,0.00,Wunderground v.1.15,2013-02-16 14:43:00,
2013-02-16 08:48:00,0.0,-3.4,30.22,West,277,0.0,0.0,85,0.00,,,0.00,Wunderground v.1.15,2013-02-16 14:48:00,
2013-02-16 08:54:00,0.5,-3.4,30.22,West,277,0.0,0.0,83,0.00,,,0.00,Wunderground v.1.15,2013-02-16 14:54:00,
2013-02-16 09:00:00,0.8,-3.4,30.22,West,277,0.0,0.0,82,0.00,,,0.00,Wunderground v.1.15,2013-02-16 15:00:00,
2013-02-16 09:05:00,0.9,-3.3,30.22,West,277,0.0,0.0,82,0.00,,,0.00,Wunderground v.1.15,2013-02-16 15:05:00,
2013-02-16 09:11:00,1.5,-2.5,30.22,West,277,0.0,0.0,83,0.00,,,0.00,Wunderground v.1.15,2013-02-16 15:11:00,
2013-02-16 09:17:00,2.2,-1.8,30.22,West,277,0.0,0.0,83,0.00,,,0.00,Wunderground v.1.15,2013-02-16 15:17:00,
2013-02-16 09:23:00,2.8,-1.4,30.21,SW,236,0.0,0.0,82,0.00,,,0.00,Wunderground v.1.15,2013-02-16 15:23:00,
2013-02-16 09:29:00,3.5,-0.8,30.21,NW,311,0.0,0.0,82,0.00,,,0.00,Wunderground v.1.15,2013-02-16 15:29:00,
2013-02-16 09:35:00,4.2,-0.1,30.21,West,268,0.0,0.0,82,0.00,,,0.00,Wunderground v.1.15,2013-02-16 15:35:00,
2013-02-16 09:41:00,5.4,1.1,30.21,North,355,0.0,0.0,82,0.00,,,0.00,Wunderground v.1.15,2013-02-16 15:41:00,
2013-02-16 09:46:00,6.7,1.8,30.21,NNW,346,0.0,0.0,80,0.00,,,0.00,Wunderground v.1.15,2013-02-16 15:46:00,
2013-02-16 09:52:00,7.6,2.2,30.21,NW,325,0.0,0.0,78,0.00,,,0.00,Wunderground v.1.15,2013-02-16 15:52:00,
2013-02-16 09:58:00,8.3,2.3,30.21,NNW,335,0.0,0.0,76,0.00,,,0.00,Wunderground v.1.15,2013-02-16 15:58:00,
2013-02-16 10:04:00,8.7,2.4,30.21,NNW,332,0.0,0.0,75,0.00,,,0.00,Wunderground v.1.15,2013-02-16 16:04:00,
2013-02-16 10:10:00,9.4,2.8,30.21,NW,315,0.0,0.0,74,0.00,,,0.00,Wunderground v.1.15,2013-02-16 16:10:00,
2013-02-16 10:16:00,10.0,2.8,30.20,North,11,0.0,0.0,72,0.00,,,0.00,Wunderground v.1.15,2013-02-16 16:16:00,
2013-02-16 10:22:00,10.2,2.7,30.20,North,5,0.0,0.0,71,0.00,,,0.00,Wunderground v.1.15,2013-02-16 16:22:00,
2013-02-16 10:28:00,10.7,2.5,30.20,NE,39,0.0,0.0,69,0.00,,,0.00,Wunderground v.1.15,2013-02-16 16:28:00,
2013-02-16 10:33:00,11.0,2.5,30.20,NNW,328,0.0,0.0,68,0.00,,,0.00,Wunderground v.1.15,2013-02-16 16:33:00,
2013-02-16 10:39:00,11.3,2.5,30.20,WNW,302,0.0,0.0,67,0.00,,,0.00,Wunderground v.1.15,2013-02-16 16:39:00,
2013-02-16 10:45:00,11.4,2.6,30.20,NNW,342,0.0,0.0,67,0.00,,,0.00,Wunderground v.1.15,2013-02-16 16:45:00,
2013-02-16 10:51:00,11.6,2.8,30.20,NNW,338,0.0,0.0,67,0.00,,,0.00,Wunderground v.1.15,2013-02-16 16:51:00,
2013-02-16 10:57:00,11.6,2.1,30.20,WNW,294,0.0,0.0,65,0.00,,,0.00,Wunderground v.1.15,2013-02-16 16:57:00,
2013-02-16 11:03:00,11.8,2.3,30.20,NNW,336,0.0,0.0,65,0.00,,,0.00,Wunderground v.1.15,2013-02-16 17:03:00,
2013-02-16 11:09:00,12.1,2.2,30.20,NNE,12,0.0,0.0,64,0.00,,,0.00,Wunderground v.1.15,2013-02-16 17:09:00,
2013-02-16 11:15:00,12.2,2.3,30.20,West,279,0.0,0.0,64,0.00,,,0.00,Wunderground v.1.15,2013-02-16 17:15:00,
2013-02-16 11:20:00,12.8,2.6,30.20,West,273,0.0,0.0,63,0.00,,,0.00,Wunderground v.1.15,2013-02-16 17:20:00,
2013-02-16 11:26:00,13.0,2.4,30.20,NW,305,0.0,0.0,62,0.00,,,0.00,Wunderground v.1.15,2013-02-16 17:26:00,
2013-02-16 11:32:00,13.0,2.8,30.20,WNW,302,0.0,0.0,63,0.00,,,0.00,Wunderground v.1.15,2013-02-16 17:32:00,
2013-02-16 11:38:00,13.5,2.5,30.19,WNW,303,0.0,0.0,61,0.00,,,0.00,Wunderground v.1.15,2013-02-16 17:38:00,
2013-02-16 11:44:00,13.4,2.4,30.19,West,281,0.0,0.0,61,0.00,,,0.00,Wunderground v.1.15,2013-02-16 17:44:00,
2013-02-16 11:50:00,13.6,2.6,30.19,West,267,0.0,0.0,61,0.00,,,0.00,Wunderground v.1.15,2013-02-16 17:50:00,
2013-02-16 11:56:00,13.9,3.3,30.19,WSW,244,0.0,0.0,62,0.00,,,0.00,Wunderground v.1.15,2013-02-16 17:56:00,
2013-02-16 12:02:00,14.3,2.9,30.19,SW,232,0.0,0.0,60,0.00,,,0.00,Wunderground v.1.15,2013-02-16 18:02:00,
2013-02-16 12:08:00,14.8,3.4,30.18,WSW,253,0.0,0.0,60,0.00,,,0.00,Wunderground v.1.15,2013-02-16 18:08:00,
2013-02-16 12:13:00,14.8,2.7,30.18,West,280,0.0,0.0,58,0.00,,,0.00,Wunderground v.1.15,2013-02-16 18:13:00,
2013-02-16 12:19:00,14.0,2.7,30.18,SW,232,0.0,0.0,60,0.00,,,0.00,Wunderground v.1.15,2013-02-16 18:19:00,
2013-02-16 12:25:00,13.7,2.7,30.18,WSW,242,0.0,0.0,61,0.00,,,0.00,Wunderground v.1.15,2013-02-16 18:25:00,
2013-02-16 12:31:00,14.1,2.4,30.18,SW,222,0.0,0.0,59,0.00,,,0.00,Wunderground v.1.15,2013-02-16 18:31:00,
2013-02-16 12:37:00,15.0,3.2,30.18,WSW,257,0.0,0.0,59,0.00,,,0.00,Wunderground v.1.15,2013-02-16 18:37:00,
2013-02-16 12:43:00,14.6,2.9,30.18,WSW,238,0.0,0.0,59,0.00,,,0.00,Wunderground v.1.15,2013-02-16 18:43:00,
2013-02-16 12:48:00,14.3,3.3,30.18,WSW,241,0.0,0.0,61,0.00,,,0.00,Wunderground v.1.15,2013-02-16 18:48:00,
2013-02-16 12:54:00,14.4,3.0,30.18,SW,223,0.0,0.0,60,0.00,,,0.00,Wunderground v.1.15,2013-02-16 18:54:00,
2013-02-16 12:59:00,14.6,3.6,30.18,West,259,0.0,0.0,61,0.00,,,0.00,Wunderground v.1.15,2013-02-16 18:59:00,
2013-02-16 13:05:00,14.7,2.2,30.18,SW,217,0.0,0.0,57,0.00,,,0.00,Wunderground v.1.15,2013-02-16 19:05:00,
2013-02-16 13:11:00,14.8,2.7,30.18,NNE,20,0.0,0.0,58,0.00,,,0.00,Wunderground v.1.15,2013-02-16 19:11:00,
2013-02-16 13:17:00,15.4,2.5,30.17,SW,227,0.0,0.0,56,0.00,,,0.00,Wunderground v.1.15,2013-02-16 19:17:00,
2013-02-16 13:23:00,16.0,1.9,30.17,WNW,296,0.0,0.0,53,0.00,,,0.00,Wunderground v.1.15,2013-02-16 19:23:00,
2013-02-16 13:29:00,15.7,2.0,30.17,NW,324,0.0,0.0,54,0.00,,,0.00,Wunderground v.1.15,2013-02-16 19:29:00,
2013-02-16 13:34:00,16.3,2.5,30.17,NNW,344,0.0,0.0,54,0.00,,,0.00,Wunderground v.1.15,2013-02-16 19:34:00,
2013-02-16 13:40:00,17.0,2.8,30.17,ENE,57,0.0,0.0,53,0.00,,,0.00,Wunderground v.1.15,2013-02-16 19:40:00,
2013-02-16 13:46:00,16.6,1.6,30.17,NE,42,0.0,0.0,51,0.00,,,0.00,Wunderground v.1.15,2013-02-16 19:46:00,
2013-02-16 13:51:00,16.2,2.8,30.17,NE,37,0.0,0.0,55,0.00,,,0.00,Wunderground v.1.15,2013-02-16 19:51:00,
2013-02-16 13:57:00,15.9,2.2,30.17,NNE,31,0.0,0.0,54,0.00,,,0.00,Wunderground v.1.15,2013-02-16 19:57:00,
2013-02-16 14:03:00,15.9,2.6,30.17,NE,44,0.0,0.0,55,0.00,,,0.00,Wunderground v.1.15,2013-02-16 20:03:00,
2013-02-16 14:09:00,15.8,2.5,30.17,NE,47,0.0,0.0,55,0.00,,,0.00,Wunderground v.1.15,2013-02-16 20:09:00,
2013-02-16 14:15:00,15.8,1.7,30.17,NNE,28,0.0,0.0,53,0.00,,,0.00,Wunderground v.1.15,2013-02-16 20:15:00,
2013-02-16 14:20:00,16.4,2.6,30.17,NE,39,0.0,0.0,54,0.00,,,0.00,Wunderground v.1.15,2013-02-16 20:20:00,
2013-02-16 14:26:00,16.4,2.2,30.17,WNW,288,0.0,0.0,53,0.00,,,0.00,Wunderground v.1.15,2013-02-16 20:26:00,
2013-02-16 14:32:00,15.5,2.2,30.18,West,267,0.0,0.0,55,0.00,,,0.00,Wunderground v.1.15,2013-02-16 20:32:00,
2013-02-16 14:38:00,15.2,1.9,30.18,North,11,0.0,0.0,55,0.00,,,0.00,Wunderground v.1.15,2013-02-16 20:38:00,
2013-02-16 14:44:00,15.3,2.0,30.18,NE,46,0.0,0.0,55,0.00,,,0.00,Wunderground v.1.15,2013-02-16 20:44:00,
2013-02-16 14:49:00,15.4,1.3,30.18,NNE,16,0.0,0.0,53,0.00,,,0.00,Wunderground v.1.15,2013-02-16 20:49:00,
2013-02-16 14:54:00,15.5,1.0,30.18,NE,36,0.0,0.0,52,0.00,,,0.00,Wunderground v.1.15,2013-02-16 20:54:00,
2013-02-16 15:00:00,16.2,2.0,30.18,NNE,22,0.0,0.0,53,0.00,,,0.00,Wunderground v.1.15,2013-02-16 21:00:00,
2013-02-16 15:05:00,16.7,2.5,30.18,WSW,245,0.0,0.0,53,0.00,,,0.00,Wunderground v.1.15,2013-02-16 21:05:00,
2013-02-16 15:11:00,16.1,1.9,30.18,WNW,284,0.0,0.0,53,0.00,,,0.00,Wunderground v.1.15,2013-02-16 21:11:00,
2013-02-16 15:17:00,15.7,2.0,30.18,West,280,0.0,0.0,54,0.00,,,0.00,Wunderground v.1.15,2013-02-16 21:17:00,
2013-02-16 15:22:00,15.4,2.1,30.18,WNW,288,0.0,0.0,55,0.00,,,0.00,Wunderground v.1.15,2013-02-16 21:22:00,
2013-02-16 15:27:00,15.3,2.0,30.18,West,271,0.0,0.0,55,0.00,,,0.00,Wunderground v.1.15,2013-02-16 21:27:00,
2013-02-16 15:33:00,15.3,2.4,30.18,North,9,0.0,0.0,56,0.00,,,0.00,Wunderground v.1.15,2013-02-16 21:33:00,
2013-02-16 15:39:00,15.7,2.4,30.18,NW,307,0.0,0.0,55,0.00,,,0.00,Wunderground v.1.15,2013-02-16 21:39:00,
2013-02-16 15:45:00,15.7,2.4,30.19,NW,304,0.0,0.0,55,0.00,,,0.00,Wunderground v.1.15,2013-02-16 21:45:00,
2013-02-16 15:50:00,15.6,1.9,30.19,NW,313,0.0,0.0,54,0.00,,,0.00,Wunderground v.1.15,2013-02-16 21:50:00,
2013-02-16 15:55:00,15.7,1.6,30.19,NE,45,0.0,0.0,53,0.00,,,0.00,Wunderground v.1.15,2013-02-16 21:55:00,
2013-02-16 16:02:00,15.5,1.4,30.19,NNE,15,0.0,0.0,53,0.00,,,0.00,Wunderground v.1.15,2013-02-16 22:02:00,
2013-02-16 16:07:00,15.7,2.0,30.19,North,349,0.0,0.0,54,0.00,,,0.00,Wunderground v.1.15,2013-02-16 22:07:00,
2013-02-16 16:12:00,15.9,1.8,30.19,NE,42,0.0,0.0,53,0.00,,,0.00,Wunderground v.1.15,2013-02-16 22:12:00,
2013-02-16 16:18:00,15.9,1.8,30.19,NE,36,0.0,0.0,53,0.00,,,0.00,Wunderground v.1.15,2013-02-16 22:18:00,
2013-02-16 16:24:00,15.8,1.7,30.19,North,355,0.0,0.0,53,0.00,,,0.00,Wunderground v.1.15,2013-02-16 22:24:00,
2013-02-16 16:30:00,15.9,1.8,30.19,ENE,57,0.0,0.0,53,0.00,,,0.00,Wunderground v.1.15,2013-02-16 22:30:00,
2013-02-16 16:36:00,15.9,1.4,30.19,NNW,348,0.0,0.0,52,0.00,,,0.00,Wunderground v.1.15,2013-02-16 22:36:00,
2013-02-16 16:42:00,15.8,1.3,30.19,North,360,0.0,0.0,52,0.00,,,0.00,Wunderground v.1.15,2013-02-16 22:42:00,
2013-02-16 16:48:00,15.3,0.4,30.19,West,275,0.0,0.0,51,0.00,,,0.00,Wunderground v.1.15,2013-02-16 22:48:00,
2013-02-16 16:54:00,14.6,0.5,30.19,WNW,287,0.0,0.0,53,0.00,,,0.00,Wunderground v.1.15,2013-02-16 22:54:00,
2013-02-16 16:59:00,14.1,0.5,30.20,NW,305,0.0,0.0,54,0.00,,,0.00,Wunderground v.1.15,2013-02-16 22:59:00,
2013-02-16 17:05:00,13.8,0.2,30.20,WNW,299,0.0,0.0,54,0.00,,,0.00,Wunderground v.1.15,2013-02-16 23:05:00,
2013-02-16 17:11:00,13.5,0.3,30.20,WNW,293,0.0,0.0,55,0.00,,,0.00,Wunderground v.1.15,2013-02-16 23:11:00,
2013-02-16 17:17:00,13.6,0.4,30.20,WNW,302,0.0,0.0,55,0.00,,,0.00,Wunderground v.1.15,2013-02-16 23:17:00,
2013-02-16 17:23:00,13.4,0.2,30.20,NW,316,0.0,0.0,55,0.00,,,0.00,Wunderground v.1.15,2013-02-16 23:23:00,
2013-02-16 17:29:00,12.7,-0.4,30.20,WNW,302,0.0,0.0,55,0.00,,,0.00,Wunderground v.1.15,2013-02-16 23:29:00,
2013-02-16 17:35:00,11.6,-1.1,30.21,WSW,255,0.0,0.0,56,0.00,,,0.00,Wunderground v.1.15,2013-02-16 23:35:00,
2013-02-16 17:41:00,10.7,-0.8,30.21,SW,233,0.0,0.0,59,0.00,,,0.00,Wunderground v.1.15,2013-02-16 23:41:00,
2013-02-16 17:47:00,9.9,-1.2,30.21,WSW,249,0.0,0.0,60,0.00,,,0.00,Wunderground v.1.15,2013-02-16 23:47:00,
2013-02-16 17:52:00,9.9,-0.9,30.21,West,259,0.0,0.0,61,0.00,,,0.00,Wunderground v.1.15,2013-02-16 23:52:00,
2013-02-16 17:58:00,9.8,-1.0,30.21,WSW,243,0.0,0.0,61,0.00,,,0.00,Wunderground v.1.15,2013-02-16 23:58:00,
2013-02-16 18:04:00,9.5,-1.3,30.21,West,259,0.0,0.0,61,0.00,,,0.00,Wunderground v.1.15,2013-02-17 00:04:00,
2013-02-16 18:10:00,8.8,-1.6,30.21,WSW,250,0.0,0.0,62,0.00,,,0.00,Wunderground v.1.15,2013-02-17 00:10:00,
2013-02-16 18:16:00,8.6,-1.4,30.21,West,267,0.0,0.0,63,0.00,,,0.00,Wunderground v.1.15,2013-02-17 00:16:00,
2013-02-16 18:22:00,8.7,-1.0,30.22,West,259,0.0,0.0,64,0.00,,,0.00,Wunderground v.1.15,2013-02-17 00:22:00,
2013-02-16 18:28:00,8.9,-0.8,30.22,WSW,250,0.0,0.0,64,0.00,,,0.00,Wunderground v.1.15,2013-02-17 00:28:00,
2013-02-16 18:34:00,8.7,-1.0,30.22,SW,231,0.0,0.0,64,0.00,,,0.00,Wunderground v.1.15,2013-02-17 00:34:00,
2013-02-16 18:39:00,8.2,-1.2,30.21,WSW,241,0.0,0.0,65,0.00,,,0.00,Wunderground v.1.15,2013-02-17 00:39:00,
2013-02-16 18:46:00,7.9,-1.1,30.21,WSW,252,0.0,0.0,66,0.00,,,0.00,Wunderground v.1.15,2013-02-17 00:46:00,
2013-02-16 18:51:00,7.7,-1.3,30.21,WSW,247,0.0,0.0,66,0.00,,,0.00,Wunderground v.1.15,2013-02-17 00:51:00,
2013-02-16 18:57:00,7.6,-1.1,30.21,WSW,246,0.0,0.0,67,0.00,,,0.00,Wunderground v.1.15,2013-02-17 00:57:00,
2013-02-16 19:03:00,7.7,-1.0,30.21,West,259,0.0,0.0,67,0.00,,,0.00,Wunderground v.1.15,2013-02-17 01:03:00,
2013-02-16 19:08:00,7.5,-1.5,30.21,West,275,0.0,0.0,66,0.00,,,0.00,Wunderground v.1.15,2013-02-17 01:08:00,
2013-02-16 19:13:00,6.4,-3.2,30.22,WNW,302,0.0,0.0,64,0.00,,,0.00,Wunderground v.1.15,2013-02-17 01:13:00,
2013-02-16 19:19:00,4.7,-3.9,30.22,North,350,0.0,0.0,67,0.00,,,0.00,Wunderground v.1.15,2013-02-17 01:19:00,
2013-02-16 19:25:00,3.7,-4.2,30.22,NW,324,0.0,0.0,69,0.00,,,0.00,Wunderground v.1.15,2013-02-17 01:25:00,
2013-02-16 19:30:00,3.3,-4.0,30.21,West,281,0.0,0.0,71,0.00,,,0.00,Wunderground v.1.15,2013-02-17 01:30:00,
2013-02-16 19:36:00,3.3,-3.1,30.21,West,281,0.0,0.0,74,0.00,,,0.00,Wunderground v.1.15,2013-02-17 01:36:00,
2013-02-16 19:42:00,3.6,-2.8,30.22,West,281,0.0,0.0,74,0.00,,,0.00,Wunderground v.1.15,2013-02-17 01:42:00,
2013-02-16 19:48:00,4.5,-2.0,30.22,West,281,0.0,0.0,74,0.00,,,0.00,Wunderground v.1.15,2013-02-17 01:48:00,
2013-02-16 19:54:00,4.2,-3.1,30.22,West,281,0.0,0.0,71,0.00,,,0.00,Wunderground v.1.15,2013-02-17 01:54:00,
2013-02-16 20:00:00,3.6,-3.4,30.22,West,281,0.0,0.0,72,0.00,,,0.00,Wunderground v.1.15,2013-02-17 02:00:00,
2013-02-16 20:05:00,3.2,-3.5,30.22,West,281,0.0,0.0,73,0.00,,,0.00,Wunderground v.1.15,2013-02-17 02:05:00,
2013-02-16 20:11:00,2.8,-3.6,30.22,West,281,0.0,0.0,74,0.00,,,0.00,Wunderground v.1.15,2013-02-17 02:11:00,
2013-02-16 20:17:00,2.3,-4.1,30.22,West,281,0.0,0.0,74,0.00,,,0.00,Wunderground v.1.15,2013-02-17 02:17:00,
2013-02-16 20:23:00,2.0,-4.1,30.22,West,281,0.0,0.0,75,0.00,,,0.00,Wunderground v.1.15,2013-02-17 02:23:00,
2013-02-16 20:29:00,2.0,-3.8,30.22,West,281,0.0,0.0,76,0.00,,,0.00,Wunderground v.1.15,2013-02-17 02:29:00,
2013-02-16 20:35:00,2.2,-3.6,30.22,West,281,0.0,0.0,76,0.00,,,0.00,Wunderground v.1.15,2013-02-17 02:35:00,
2013-02-16 20:41:00,2.0,-3.8,30.22,West,281,0.0,0.0,76,0.00,,,0.00,Wunderground v.1.15,2013-02-17 02:41:00,
2013-02-16 20:47:00,1.9,-3.7,30.22,West,281,0.0,0.0,77,0.00,,,0.00,Wunderground v.1.15,2013-02-17 02:47:00,
2013-02-16 20:52:00,1.7,-3.8,30.23,West,281,0.0,0.0,77,0.00,,,0.00,Wunderground v.1.15,2013-02-17 02:52:00,
2013-02-16 20:58:00,1.6,-3.9,30.23,West,281,0.0,0.0,77,0.00,,,0.00,Wunderground v.1.15,2013-02-17 02:58:00,
2013-02-16 21:04:00,1.2,-4.3,30.23,West,281,0.0,0.0,77,0.00,,,0.00,Wunderground v.1.15,2013-02-17 03:04:00,
2013-02-16 21:10:00,0.6,-5.2,30.23,West,281,0.0,0.0,76,0.00,,,0.00,Wunderground v.1.15,2013-02-17 03:10:00,
2013-02-16 21:16:00,-0.1,-5.9,30.23,West,281,0.0,0.0,76,0.00,,,0.00,Wunderground v.1.15,2013-02-17 03:16:00,
2013-02-16 21:22:00,-0.9,-6.4,30.23,West,281,0.0,0.0,77,0.00,,,0.00,Wunderground v.1.15,2013-02-17 03:22:00,
2013-02-16 21:27:00,-1.4,-6.6,30.23,West,281,0.0,0.0,78,0.00,,,0.00,Wunderground v.1.15,2013-02-17 03:27:00,
2013-02-16 21:32:00,-2.1,-7.0,30.23,West,281,0.0,0.0,79,0.00,,,0.00,Wunderground v.1.15,2013-02-17 03:32:00,
2013-02-16 21:38:00,-2.9,-7.8,30.23,West,281,0.0,0.0,79,0.00,,,0.00,Wunderground v.1.15,2013-02-17 03:38:00,
2013-02-16 21:44:00,-3.5,-8.1,30.23,West,281,0.0,0.0,80,0.00,,,0.00,Wunderground v.1.15,2013-02-17 03:44:00,
2013-02-16 21:50:00,-3.9,-8.5,30.23,West,281,0.0,0.0,80,0.00,,,0.00,Wunderground v.1.15,2013-02-17 03:50:00,
2013-02-16 21:56:00,-4.1,-8.5,30.23,West,281,0.0,0.0,81,0.00,,,0.00,Wunderground v.1.15,2013-02-17 03:56:00,
2013-02-16 22:02:00,-4.3,-8.4,30.23,West,281,0.0,0.0,82,0.00,,,0.00,Wunderground v.1.15,2013-02-17 04:02:00,
2013-02-16 22:07:00,-4.5,-8.6,30.23,West,281,0.0,0.0,82,0.00,,,0.00,Wunderground v.1.15,2013-02-17 04:07:00,
2013-02-16 22:12:00,-4.8,-8.9,30.23,West,281,0.0,0.0,82,0.00,,,0.00,Wunderground v.1.15,2013-02-17 04:12:00,
2013-02-16 22:18:00,-5.0,-9.1,30.23,West,281,0.0,0.0,82,0.00,,,0.00,Wunderground v.1.15,2013-02-17 04:18:00,
2013-02-16 22:24:00,-5.2,-9.3,30.23,West,281,0.0,0.0,82,0.00,,,0.00,Wunderground v.1.15,2013-02-17 04:24:00,
2013-02-16 22:30:00,-5.5,-9.6,30.23,West,281,0.0,0.0,82,0.00,,,0.00,Wunderground v.1.15,2013-02-17 04:30:00,
2013-02-16 22:36:00,-5.8,-9.9,30.23,West,281,0.0,0.0,82,0.00,,,0.00,Wunderground v.1.15,2013-02-17 04:36:00,
2013-02-16 22:42:00,-6.1,-9.9,30.23,West,281,0.0,0.0,83,0.00,,,0.00,Wunderground v.1.15,2013-02-17 04:42:00,
2013-02-16 22:48:00,-6.3,-10.4,30.22,West,281,0.0,0.0,82,0.00,,,0.00,Wunderground v.1.15,2013-02-17 04:48:00,
2013-02-16 22:54:00,-7.0,-11.3,30.22,West,281,0.0,0.0,81,0.00,,,0.00,Wunderground v.1.15,2013-02-17 04:54:00,
2013-02-16 23:00:00,-7.6,-11.9,30.22,West,281,0.0,0.0,81,0.00,,,0.00,Wunderground v.1.15,2013-02-17 05:00:00,
2013-02-16 23:02:00,-7.7,-12.0,30.22,West,281,0.0,0.0,81,0.00,,,0.00,Wunderground v.1.15,2013-02-17 05:02:00,
2013-02-16 23:04:00,-7.9,-12.2,30.23,West,281,0.0,0.0,81,0.00,,,0.00,Wunderground v.1.15,2013-02-17 05:04:00,
2013-02-16 23:10:00,-8.1,-12.4,30.22,West,281,0.0,0.0,81,0.00,,,0.00,Wunderground v.1.15,2013-02-17 05:10:00,
2013-02-16 23:16:00,-8.5,-12.8,30.23,West,281,0.0,0.0,81,0.00,,,0.00,Wunderground v.1.15,2013-02-17 05:16:00,
2013-02-16 23:22:00,-8.8,-13.1,30.23,West,281,0.0,0.0,81,0.00,,,0.00,Wunderground v.1.15,2013-02-17 05:22:00,
2013-02-16 23:28:00,-8.9,-12.9,30.23,West,281,0.0,0.0,82,0.00,,,0.00,Wunderground v.1.15,2013-02-17 05:28:00,
2013-02-16 23:34:00,-8.9,-12.7,30.22,West,281,0.0,0.0,83,0.00,,,0.00,Wunderground v.1.15,2013-02-17 05:34:00,
2013-02-16 23:39:00,-9.1,-13.1,30.22,West,281,0.0,0.0,82,0.00,,,0.00,Wunderground v.1.15,2013-02-17 05:39:00,
2013-02-16 23:46:00,-9.3,-13.1,30.22,West,281,0.0,0.0,83,0.00,,,0.00,Wunderground v.1.15,2013-02-17 05:46:00,
2013-02-16 23:51:00,-9.3,-13.1,30.22,West,281,0.0,0.0,83,0.00,,,0.00,Wunderground v.1.15,2013-02-17 05:51:00,
2013-02-16 23:57:00,-9.3,-13.3,30.22,West,281,0.0,0.0,82,0.00,,,0.00,Wunderground v.1.15,2013-02-17 05:57:00,